Regional Weather Roundup
Issued by NWS

Home | Current Version | Previous Version | Text Only | Print | Product List | Glossary On
Versions: 1 2 3 4 5 6 7 8 9 10 11 12 13 14 15 16 17 18 19 20 21 22 23 24 25 26 27 28 29 30 31 32 33 34 35 36 37 38 39 40 41 42 43 44 45 46 47 48 49 50
336
ASUS43 KMPX 251101
RWRMN
WEATHER ROUNDUP FOR MINNESOTA
NATIONAL WEATHER SERVICE TWIN CITIES/CHANHASSEN MN
500 AM CST SUN FEB 25 2018


NOTE: "FAIR" INDICATES FEW OR NO CLOUDS BELOW 12,000 FEET WITH NO
SIGNIFICANT WEATHER AND/OR OBSTRUCTIONS TO VISIBILITY. N/A MEANS
CURRENT SKY AND/OR WEATHER CONDITIONS ARE NOT AVAILABLE.

MNZ060>063-068>070-251200-
   Twin Cities Metro

CITY           SKY/WX    TMP DP  RH WIND       PRES   REMARKS
TWIN CITIES    CLOUDY    17  15  92 W12       29.59R WCI   4
ST PAUL        CLOUDY    18  14  84 W8        29.60R WCI   8
CRYSTAL        CLOUDY    17  13  84 SW12      29.56S WCI   4
BLAINE         CLOUDY    19  18  93 SW12G21   29.55R WCI   7
LAKEVILLE      CLOUDY    16  16 100 W16G24    29.59R WCI   0
EDEN PRAIRIE   CLOUDY    18  13  80 SW12G22   29.58R WCI   5
SOUTH ST PAUL  MOCLDY    17  14  87 W13       29.59R WCI   4
LAKE ELMO      CLOUDY    18  14  86 W17G23    29.57R WCI   2
$$
MNZ001>005-007-008-013>017-022>024-027-028-251200-
   Northwest Minnesota

CITY           SKY/WX    TMP DP  RH WIND       PRES   REMARKS
BEMIDJI        FLURRIES  18  16  90 W10       29.40S WCI   6
HALLOCK        LGT SNOW  14  12  92 CALM      29.47S
ROSEAU         LGT SNOW  19  16  86 W9        29.43S WCI   9
WARROAD        FLURRIES  19  16  86 W7        29.42S WCI  10
THIEF RVR FALL FLURRIES  17  15  92 W8        29.46F WCI   7
CROOKSTON      FLURRIES  16  14  93 W3        29.48F
FOSSTON        CLOUDY    16  14  93 W8        29.45S WCI   5
DETROIT LAKES  FLURRIES  18  16  93 W6        29.48R WCI   9
MOORHEAD       FAIR       3   1  92 SW8       29.54R WCI -10
PARK RAPIDS    CLOUDY    18  15  88 W13       29.42S WCI   5
MAHNOMEN       FLURRIES  15  13  92 W8        29.46S WCI   4
$$
MNZ006-009>011-018-025>026-251200-
   North Central Minnesota

CITY           SKY/WX    TMP DP  RH WIND       PRES   REMARKS
BAUDETTE       LGT SNOW  20  18  92 NW9       29.36R FOG     WCI   9
FLAG ISLAND    LGT SNOW  19  18  93 NW12      29.38F WCI   7
INTL FALLS     FLURRIES  22  20  92 NW7       29.31S WCI  13
WASKISH        LGT SNOW  19  19 100 W8        29.37S WCI   9
LONGVILLE      CLOUDY    19  16  86 W9        29.40R WCI   9
GRAND RAPIDS   FLURRIES  19  17  92 W8        29.37R WCI   9
CRANE LAKE     LGT SNOW  19  19 100 CALM      29.29F
ORR            FLURRIES  19  18  93 W5        29.26F WCI  13
COOK             N/A     19  18  93 W6        29.29S WCI  11
WALKER         CLOUDY    19  15  88 W15G21    29.40R WCI   4
$$
MNZ012-019>021-037-251200-
   Northeast Minnesota

CITY           SKY/WX    TMP DP  RH WIND       PRES   REMARKS
DULUTH         CLOUDY    24  20  84 W22G33    29.29R BLWGSNOWWCI   9
ELY            LGT SNOW  21  21 100 W5        29.24S WCI  15
HIBBING        CLOUDY    20  18  92 W6        29.30S WCI  12
DULUTH HARBOR  CLOUDY    28  25  86 W26       29.33R WCI  13
TWO HARBORS    CLOUDY    30  25  80 W15       29.25S HAZE    WCI  19
GRAND MARAIS     N/A     30  27  88 E3        29.23F
G MARAIS ARPRT MIX PCPN  23  19  86 CALM      29.18S
$$
MNZ029>031-032-039>041-046>048-054>057-064-251200-
   West Central Minnesota

CITY           SKY/WX    TMP DP  RH WIND       PRES   REMARKS
FERGUS FALLS   FLURRIES   3   0  85 W8        29.55R WCI -10
WHEATON        PTCLDY     9   3  78 W9        29.59R WCI  -5
MORRIS         CLEAR      7   3  85 W12       29.56R WCI  -9
ALEXANDRIA     CLOUDY    16  14  92 W12       29.52R WCI   3
ELBOW LAKE     FAIR       6   4  90 NW10      29.54S WCI  -9
WADENA         CLOUDY    14  12  92 W9        29.47S WCI   2
GLENWOOD       FAIR      16  12  86 W16       29.53R WCI   0
APPLETON       CLEAR      7   1  78 W10       29.60R WCI  -8
BENSON         CLEAR      7   3  85 W9        29.58R WCI  -7
ORTONVILLE     CLEAR     12   7  79 NW6       29.59R WCI   3
MADISON        CLEAR     14   9  79 SW12      29.62R WCI   0
WILLMAR        FAIR       9   5  85 W12       29.60R WCI  -6
$$
MNZ033>034-036-042>043-049>051-058-059-251200-
   Central Minnesota

CITY           SKY/WX    TMP DP  RH WIND       PRES   REMARKS
ST CLOUD       CLOUDY    20  17  88 W15G22    29.53R WCI   6
SAUK CENTRE    CLOUDY    16  13  90 W16G22    29.53R WCI   1
PAYNESVILLE    CLOUDY    16  14  93 W14       29.55R WCI   1
AITKIN         MOCLDY    18  16  93 W9G18     29.39R WCI   6
PINE RIVER     CLOUDY    18  16  93 W6        29.47R WCI   9
BRAINERD       CLOUDY    21  15  78 W15G24    29.45R WCI   8
STAPLES        CLOUDY    16  16 100 W14       29.47S WCI   1
LONG PRAIRIE   CLOUDY    18  14  86 SW9G20    29.51R WCI   6
LITTLE FALLS   CLOUDY    21  14  73 W9G17     29.50R WCI  11
LITCHFIELD     CLOUDY    18  16  93 W7        29.58R WCI   8
BUFFALO        CLOUDY    17  14  86 SW10G18   29.58R WCI   5
MAPLE LAKE     CLOUDY    17  15  90 SW10G20   29.57R WCI   5
HUTCHINSON     FAIR      14  11  88 SW10      29.60R WCI   2
$$
MNZ037-044-045-052-053-251200-
   East Central Minnesota

CITY           SKY/WX    TMP DP  RH WIND       PRES   REMARKS
PRINCETON      CLOUDY    21  18  86 SW12G18   29.51R WCI   9
CAMBRIDGE        N/A     23  18  80 W12G21    29.51R WCI  12
RUSH CITY      CLOUDY    22  18  84 W16G24    29.49R WCI   8
MOOSE LAKE     MOCLDY    23  19  86 W9G18     29.37R WCI  13
HINCKLEY       PTSUNNY   23  19  86 W16       29.44R WCI  10
CLOQUET        CLOUDY    23  19  86 W17G24    29.33R WCI   9
MCGREGOR       MOCLDY    21  19  93 W7        29.39R WCI  13
$$
MNZ071>073-080-081-089-090-097-098-251200-
   Southwest Minnesota

CITY           SKY/WX    TMP DP  RH WIND       PRES   REMARKS
MONTEVIDEO     CLEAR     10   9  92 W6        29.61R WCI   1
GRANITE FALLS  CLEAR     14   9  81 SW15      29.64R WCI  -1
CANBY          CLEAR     14   8  76 NW8       29.65R WCI   3
MARSHALL       CLEAR     13   8  81 W23       29.63R WCI  -6
REDWOOD FALLS  PTCLDY    15   9  76 W16       29.63R WCI  -1
OLIVIA         CLEAR     16  12  86 W13       29.61R WCI   2
PIPESTONE      CLEAR      9   3  78 W15       29.64S WCI  -8
WORTHINGTON    CLEAR      8   4  83 SW15      29.67S WCI  -9
JACKSON        CLEAR     12   9  85 W20G25    29.66S WCI  -6
TRACY          CLEAR     15   9  80 SW14      29.63S WCI   0
SLAYTON        CLEAR     10   7  85 SW22      29.64S WCI  -9
$$
MNZ065>067-074>077-082>085-091>093-251200-
   South Central Minnesota

CITY           SKY/WX    TMP DP  RH WIND       PRES   REMARKS
MANKATO        FAIR      14  11  87 SW15      29.65R WCI  -1
NEW ULM        PTCLDY    12   9  85 SW13      29.64R WCI  -3
ST JAMES       CLEAR     14  10  85 SW17      29.66R WCI  -3
FAIRMONT       CLEAR     14   9  80 W18       29.69R WCI  -3
GLENCOE        CLOUDY    16  15  98 SW7       29.60R WCI   6
FARIBAULT      CLOUDY    18  16  93 SW13      29.63R WCI   4
OWATONNA       CLOUDY    16  12  86 SW16      29.64R WCI   0
WASECA         FAIR      14  12  92 SW14      29.66R WCI  -1
ALBERT LEA       N/A     16  12  86 SW6       29.67R WCI   7
$$
MNZ078>079-086>088-094>096-251200-
   Southeast Minnesota

CITY           SKY/WX    TMP DP  RH WIND       PRES   REMARKS
ROCHESTER      CLOUDY    17  15  92 W21G31    29.62R WCI   0
RED WING       CLOUDY    19  12  73 W16G24    29.60R WCI   5
STANTON        CLOUDY    20  15  84 W17       29.61R WCI   5
DODGE CENTER   CLOUDY    16  14  93 W17       29.62R WCI   0
WINONA         CLOUDY    21  18  86 W14G20    29.64R WCI   8
AUSTIN         MOCLDY    16  12  86 W10       29.67R WCI   3
PRESTON        CLOUDY    18  14  86 W16G22    29.65R FOG     WCI   3
$$
ABBREVIATIONS USED IN REMARKS
   TC - TEMPERATURES IN CELSIUS
  WCI - WIND CHILL INDEX
   HX - HEAT INDEX
  VSB - VISIBILITY
$$




USA.gov is the U.S. government's official web portal to all federal, state and local government web resources and services.